User: anonymous   Login
Location: Ferma
(41.9500°N, 44.5167°E)
Time: 18:14:52
(UTC+00:00)
Language:

CZ-4B R/B - Orbit

View from above orbital plane
View from above orbital plane
View from above satellite
View from above satellite

Ground track
Ground track

The orbit data is extracted from the following two-line orbital elements,

1 27432U 02024C   22020.93662157 -.00000013  00000-0  17399-4 0  9999
2 27432  99.0749  43.8560 0049954 334.1628  85.9781 14.14122816 15972
Epoch (UTC): 20 January 2022 22:28:44
Eccentricity: 0.0049954
inclination: 99.0749°
perigee height: 809 km
apogee height: 881 km
right ascension of ascending node: 43.8560°
argument of perigee: 334.1628°
revolutions per day: 14.14122816
mean anomaly at epoch: 85.9781°
orbit number at epoch: 1597

The dashed part of the orbit path shows where the satellite is in the earth's shadow,  

DLR